Wind_Speed
22 19 17 16 16 17 15 17 25 23 21 16 18 22 20 21 24 23 26 28 28 35 43 45 40 37 33 31 30 30 31 37 40 42 42 39 36 36 37 38 40 42 42 41 43 43 45 46 47
22 21 19 17 16 19 16 20 25 25 26 22 21 22 25 23 20 22 28 28 31 30 32 38 37 34 35 35 32 31 39 40 38 37 37 37 39 40 41 41 42 42 41 42 43 44 45 48 50
23 24 22 19 19 19 19 21 25 26 30 31 31 25 24 30 24 24 26 26 33 31 29 28 28 26 26 29 34 39 39 33 35 38 41 44 46 46 42 42 42 42 43 43 44 45 46 48 50
24 26 24 19 22 21 21 23 28 28 29 28 29 31 29 29 32 31 34 37 32 33 32 28 28 30 31 33 36 35 36 39 43 46 49 50 48 44 43 42 41 41 42 43 43 45 46 49 50
27 26 22 20 22 22 23 27 32 31 31 34 31 33 30 27 25 24 24 27 28 28 30 31 33 34 37 37 42 41 42 45 47 49 48 43 41 40 39 38 37 37 38 40 42 45 47 50 51
29 26 23 22 24 21 26 29 34 30 27 29 31 29 33 31 25 24 31 29 24 23 26 30 33 36 40 45 43 45 49 50 50 42 41 40 37 35 33 34 35 36 37 39 41 44 47 50 52
31 27 23 17 22 25 28 30 33 29 30 29 31 31 31 29 30 32 32 29 24 24 22 24 27 30 33 35 37 37 39 39 39 37 34 31 31 34 34 35 38 39 40 41 44 49 53 54 56
31 29 23 15 21 23 26 27 32 30 30 33 28 27 25 24 26 27 32 25 22 23 20 20 22 25 25 27 30 32 33 33 31 30 31 33 33 35 38 39 41 43 44 44 46 54 58 58 57
31 30 23 18 22 24 23 25 28 31 33 26 35 28 31 27 27 29 25 18 18 18 15 20 25 24 24 28 28 29 27 27 30 32 33 35 37 39 41 45 46 47 48 52 53 59 66 68 64
32 29 21 22 22 23 26 23 24 32 32 29 38 36 40 38 40 37 24 22 14 20 25 29 31 31 25 23 25 25 24 26 30 34 35 37 41 41 46 51 53 52 56 57 60 67 72 72 66
31 30 23 25 24 26 24 25 28 31 40 38 41 45 49 46 46 34 26 16 23 25 32 30 30 30 27 24 21 25 28 31 34 36 39 38 37 48 55 55 55 57 59 67 73 74 76 76 71
29 27 24 26 26 24 25 28 34 37 36 37 45 47 51 47 46 41 32 28 22 29 33 28 27 25 21 23 22 26 30 36 39 40 46 49 49 53 59 59 63 64 70 78 81 78 77 78 80
29 29 28 27 26 25 25 25 33 37 36 39 44 46 42 45 41 40 33 37 37 33 27 23 25 27 26 32 31 28 30 36 40 48 49 47 57 61 65 68 65 72 75 84 80 80 82 85 87
29 30 27 26 24 25 26 26 28 30 32 38 39 42 38 40 43 41 35 41 44 37 32 22 15 20 31 35 29 33 37 41 41 43 42 52 61 64 60 63 67 76 81 85 83 85 88 87 85
31 28 27 25 23 23 24 25 26 28 27 28 35 44 40 37 40 38 44 39 34 32 27 21 29 31 31 33 33 42 46 44 47 50 57 61 66 69 62 72 82 85 85 83 87 88 85 78 74
30 27 23 23 22 21 20 21 24 25 26 26 28 40 46 44 51 53 47 37 37 37 27 30 29 35 39 43 43 45 46 47 51 59 56 65 71 67 74 85 85 85 86 88 88 84 81 79 78
29 25 27 27 25 21 20 20 21 19 22 24 27 34 50 58 59 58 59 46 45 42 32 35 36 37 41 46 45 42 44 53 59 58 65 67 69 76 85 85 85 87 88 86 80 80 78 76 77
27 27 28 29 26 25 23 21 20 20 23 23 25 29 34 42 51 52 55 54 45 42 39 36 38 36 39 37 39 42 48 51 52 57 67 69 80 82 83 86 88 86 82 79 78 76 77 78 77
29 31 32 32 30 25 23 22 20 20 24 26 25 31 41 40 39 37 38 42 43 38 40 40 37 38 38 42 44 50 55 56 58 61 67 77 82 84 88 87 83 81 78 78 78 77 77 81 78
31 35 36 34 30 28 27 24 22 21 23 27 32 35 42 41 42 41 41 42 42 43 42 43 43 45 51 53 52 48 47 46 56 64 68 74 79 84 85 82 79 79 80 80 80 78 79 81 80
30 34 34 33 31 30 29 28 26 24 26 26 31 36 41 38 38 41 41 42 43 43 45 46 47 52 52 53 52 52 53 56 62 68 74 83 84 84 82 79 78 79 81 82 82 80 80 83 82
34 36 34 32 33 32 33 33 29 25 26 29 30 38 40 37 36 38 38 40 42 44 45 46 48 49 50 52 54 57 60 63 67 69 84 89 87 84 81 79 79 79 80 81 81 84 85 81 74
37 32 32 29 32 33 35 34 29 26 28 29 30 33 38 38 35 35 38 40 41 43 44 46 46 49 54 57 59 65 69 71 74 79 85 92 87 81 77 77 77 79 79 79 83 86 82 73 63
39 33 34 30 33 34 35 32 30 28 29 30 33 35 35 36 34 35 37 38 39 41 42 45 49 53 57 59 63 72 75 75 73 78 85 90 81 76 76 76 76 76 76 78 84 82 74 65 57
42 39 37 33 34 36 31 26 28 30 33 29 31 32 33 35 35 34 35 37 40 42 44 46 49 53 57 59 64 67 64 70 74 79 89 80 75 73 73 74 74 74 75 82 81 76 67 59 51
42 38 38 39 36 36 32 26 29 32 33 32 32 32 33 36 36 36 38 42 44 45 45 49 51 55 58 62 63 62 67 71 78 86 80 72 71 72 74 75 75 77 78 83 77 71 63 56 44
46 43 46 39 40 39 37 32 32 35 33 34 34 34 36 36 37 39 43 46 47 48 49 51 53 58 59 64 63 65 66 75 82 81 73 71 71 73 76 77 77 78 82 81 74 67 60 51 41
46 48 48 44 42 39 40 35 35 37 37 35 34 37 39 40 41 42 45 47 49 50 50 54 57 60 65 63 65 66 70 76 84 76 71 70 70 75 80 78 80 78 84 77 72 66 56 47 38
52 48 49 51 45 43 42 40 38 38 40 38 38 40 43 44 45 47 50 52 52 50 53 57 60 64 65 64 65 65 75 77 75 72 70 69 70 76 81 82 80 82 83 74 69 62 52 42 35
60 54 49 45 48 51 46 44 43 42 42 41 43 46 48 50 50 51 56 55 53 54 57 58 62 64 65 66 63 77 73 71 72 69 69 68 72 77 82 86 82 86 79 73 66 58 48 41 34
Wind_Direction
253 256 250 257 243 239 244 245 236 246 246 247 249 243 246 269 267 279 280 279 279 268 263 264 270 267 270 276 275 273 276 292 295 296 296 292 291 293 291 290 291 290 290 289 286 279 278 278 280
248 252 254 257 248 243 238 248 247 247 248 247 251 252 257 256 269 287 280 275 277 280 273 268 268 273 271 277 280 274 285 294 296 297 295 293 297 301 300 295 294 292 291 290 288 285 284 280 283
251 254 262 256 250 245 246 253 252 246 242 246 248 247 236 260 259 267 286 275 288 276 275 272 266 275 272 271 272 279 290 297 301 301 303 300 301 305 301 298 298 298 295 293 291 291 290 289 287
253 262 257 252 249 245 243 255 251 247 245 242 246 246 239 265 273 273 284 281 283 279 275 274 271 276 279 280 284 291 295 298 299 297 299 300 301 302 301 300 299 298 297 297 298 297 296 294 291
260 266 258 253 252 246 246 254 254 248 244 246 248 261 263 270 269 285 298 292 278 276 274 276 275 279 280 282 284 286 286 286 291 294 297 299 298 297 297 298 301 303 305 305 304 303 300 298 297
253 256 259 255 255 247 253 249 252 256 257 257 251 261 260 274 268 284 286 296 286 280 270 269 269 274 273 274 280 280 282 283 288 291 293 294 294 298 301 301 303 303 304 305 306 305 302 300 299
254 259 262 252 256 253 254 256 255 256 252 252 250 255 267 280 277 280 285 285 288 283 275 273 273 275 278 282 282 283 282 285 289 292 292 296 300 300 301 304 303 301 303 307 312 315 309 302 298
258 257 257 244 257 257 258 255 258 257 244 257 258 254 276 280 288 291 296 287 292 291 287 291 295 290 290 286 285 286 290 293 293 298 302 303 301 304 304 302 301 303 305 306 310 321 321 314 306
254 253 248 242 255 255 253 255 256 255 252 260 230 249 257 274 290 282 292 287 305 293 315 316 319 298 285 282 288 290 299 307 309 305 304 306 306 306 306 305 306 307 305 306 306 312 315 315 309
258 258 247 250 255 251 254 248 253 250 242 244 227 231 250 264 272 280 278 277 290 294 309 312 309 309 286 293 298 316 313 306 306 307 306 303 303 309 312 309 306 304 306 310 309 308 309 310 304
260 257 250 257 253 254 254 246 242 235 237 228 235 248 253 267 270 269 278 278 288 285 306 304 306 303 292 296 313 326 323 320 312 309 308 305 305 312 315 311 309 310 312 314 312 308 305 305 303
258 259 252 249 249 252 249 234 236 236 236 236 239 252 267 269 263 262 279 285 301 301 299 298 289 279 284 285 286 316 315 316 317 309 311 311 312 314 315 310 308 309 310 313 312 308 307 307 304
256 254 250 248 243 242 244 246 254 253 242 234 244 253 259 259 267 268 279 282 291 300 290 293 300 301 296 288 284 302 305 314 310 307 308 309 314 314 310 306 307 307 306 309 309 309 307 306 304
254 256 248 246 248 246 243 241 245 251 265 262 247 242 256 258 263 270 271 277 289 294 284 279 294 303 303 297 294 293 302 300 308 308 303 310 312 304 300 303 300 303 306 308 308 307 306 303 300
250 252 252 252 251 254 254 248 249 248 246 253 250 243 249 258 262 272 276 282 284 286 287 292 299 303 299 287 289 289 291 293 301 303 305 308 306 306 301 307 311 310 308 309 307 305 303 302 301
248 251 249 254 252 254 257 264 262 263 259 252 249 242 236 249 262 269 271 277 279 286 284 277 290 288 295 296 288 287 288 289 297 304 306 305 308 309 311 310 311 311 311 310 308 310 311 312 312
246 247 245 243 244 243 239 240 248 262 264 263 259 254 248 245 254 260 271 273 278 287 282 280 278 286 297 303 301 288 285 284 298 306 303 313 311 310 310 311 311 311 312 312 315 317 316 314 312
247 245 248 250 250 245 245 240 242 252 260 259 260 261 248 250 255 262 265 266 272 280 279 271 275 285 292 294 288 283 290 296 298 300 307 310 311 311 311 312 312 313 316 319 317 317 314 312 312
242 241 242 245 248 253 254 246 244 250 256 251 250 248 235 248 253 267 270 270 272 271 271 269 272 273 283 280 287 275 279 285 292 302 309 313 312 312 311 312 315 319 319 318 318 317 313 310 310
243 243 245 250 252 251 253 252 252 253 255 253 254 246 247 251 254 265 268 271 272 271 271 274 275 279 287 291 294 299 301 300 304 308 314 314 313 313 312 317 319 319 319 319 317 315 312 311 310
241 243 246 252 254 257 259 256 251 249 252 257 257 255 257 255 256 260 261 264 266 269 274 279 281 280 287 293 299 307 308 310 313 315 317 318 319 318 318 318 320 320 319 318 314 312 312 310 308
241 245 251 246 246 251 255 255 253 252 254 256 260 259 261 263 262 259 260 263 266 271 275 280 284 290 296 302 308 308 311 311 310 310 317 319 321 319 321 321 321 320 317 315 313 314 314 312 308
247 250 254 253 253 253 256 261 259 258 258 261 267 267 265 268 269 266 265 264 268 273 279 285 293 303 308 311 312 313 310 308 306 303 315 321 320 321 321 322 321 318 316 317 316 315 314 311 306
246 247 252 251 251 252 256 259 266 264 260 261 264 266 266 269 273 267 266 269 274 281 289 297 304 309 311 312 312 313 310 309 311 313 316 318 319 322 323 319 317 317 317 317 317 315 315 311 308
246 249 251 253 252 253 262 266 264 265 266 264 264 265 265 267 269 276 282 287 289 291 295 300 304 307 307 308 311 311 315 312 312 315 317 319 322 320 317 317 317 317 319 320 320 318 317 315 310
246 251 253 254 259 261 265 267 266 262 266 269 269 271 274 276 281 286 288 287 288 292 298 303 304 303 307 310 311 313 315 313 316 318 319 316 317 318 320 320 320 322 323 323 321 321 318 317 309
247 248 249 253 255 257 260 262 263 266 266 269 271 271 273 276 281 284 283 286 292 296 298 299 302 304 306 312 314 315 306 313 319 317 317 316 319 323 325 325 325 325 325 324 323 320 318 314 305
251 249 250 251 254 257 260 258 260 265 267 268 271 275 277 279 279 281 285 288 288 290 294 298 303 305 307 313 316 313 313 313 313 316 314 318 325 329 330 328 328 327 327 325 322 319 316 311 301
248 249 250 250 252 255 259 262 259 262 267 272 275 275 276 279 282 282 282 282 284 291 295 299 302 306 315 316 314 312 310 310 313 315 317 322 328 329 332 331 329 329 328 326 322 318 313 305 296
245 248 253 253 254 253 254 259 259 258 261 267 269 271 274 276 279 281 281 283 287 292 298 302 307 313 316 315 308 309 309 311 315 314 319 324 326 328 332 333 330 330 328 327 323 318 313 304 294
Height
10966 10966 10966 10967 10969 10970 10972 10973 10968 10970 10972 10970 10971 10972 10972 10971 10970 10970 10969 10969 10968 10967 10966 10965 10965 10964 10962 10961 10959 10959 10957 10957 10954 10954 10952 10951 10949 10947 10945 10944 10942 10940 10938 10936 10934 10933 10932 10930 10929
10961 10962 10964 10965 10966 10967 10970 10967 10966 10968 10968 10969 10968 10968 10969 10967 10965 10966 10965 10964 10963 10961 10959 10959 10959 10958 10956 10955 10954 10954 10952 10951 10950 10948 10947 10945 10942 10940 10938 10935 10933 10931 10929 10926 10925 10923 10922 10921 10919
10956 10958 10961 10963 10962 10965 10966 10965 10962 10964 10964 10964 10963 10963 10964 10967 10965 10965 10964 10961 10958 10957 10955 10953 10953 10952 10951 10951 10950 10949 10947 10945 10944 10942 10941 10939 10936 10934 10931 10928 10925 10922 10920 10918 10916 10914 10913 10911 10910
10951 10953 10957 10960 10958 10961 10962 10961 10957 10957 10958 10956 10957 10959 10960 10961 10961 10960 10960 10956 10953 10951 10950 10948 10947 10947 10946 10945 10944 10943 10940 10938 10937 10935 10933 10931 10929 10927 10924 10922 10919 10916 10914 10911 10909 10906 10904 10902 10899
10947 10948 10953 10955 10955 10957 10956 10954 10950 10951 10953 10955 10955 10957 10957 10955 10956 10955 10954 10950 10948 10946 10944 10943 10943 10942 10940 10939 10939 10936 10935 10932 10930 10928 10926 10924 10921 10919 10917 10914 10912 10909 10907 10905 10903 10900 10897 10894 10892
10943 10944 10948 10950 10951 10953 10951 10949 10946 10948 10951 10951 10952 10952 10952 10952 10953 10952 10950 10946 10943 10941 10940 10939 10938 10937 10936 10935 10933 10930 10929 10926 10924 10922 10920 10917 10915 10913 10910 10908 10904 10902 10900 10898 10896 10892 10888 10885 10882
10938 10941 10943 10946 10947 10947 10947 10945 10943 10946 10946 10946 10948 10946 10948 10946 10946 10947 10947 10941 10939 10936 10935 10934 10933 10931 10930 10929 10927 10924 10922 10920 10918 10916 10914 10911 10909 10907 10904 10901 10899 10896 10894 10891 10888 10883 10878 10875 10871
10934 10936 10939 10943 10941 10941 10942 10943 10941 10943 10943 10943 10942 10944 10942 10940 10940 10942 10942 10937 10935 10934 10932 10930 10929 10927 10926 10924 10921 10919 10917 10916 10914 10912 10910 10908 10905 10902 10899 10896 10892 10889 10885 10882 10878 10873 10867 10863 10858
10928 10930 10934 10937 10935 10935 10936 10937 10938 10938 10938 10940 10938 10940 10937 10937 10938 10938 10937 10933 10932 10930 10928 10927 10925 10923 10920 10918 10917 10915 10914 10913 10910 10908 10906 10903 10899 10896 10893 10888 10884 10880 10876 10871 10867 10861 10855 10850 10845
10924 10926 10930 10931 10930 10930 10930 10932 10935 10934 10934 10936 10935 10935 10932 10933 10934 10932 10932 10930 10929 10928 10926 10923 10920 10919 10917 10915 10913 10913 10911 10907 10904 10901 10899 10896 10892 10888 10885 10879 10874 10870 10866 10861 10856 10850 10844 10837 10831
10919 10920 10926 10926 10926 10925 10926 10927 10927 10929 10930 10932 10930 10929 10928 10931 10931 10930 10929 10925 10923 10922 10921 10918 10916 10915 10913 10913 10912 10908 10905 10903 10898 10893 10891 10887 10884 10879 10874 10869 10864 10859 10854 10850 10845 10838 10830 10822 10814
10913 10916 10919 10918 10920 10921 10920 10920 10917 10918 10921 10925 10922 10923 10925 10924 10922 10922 10921 10921 10920 10918 10916 10914 10911 10908 10907 10905 10903 10901 10899 10896 10892 10887 10884 10879 10874 10869 10864 10857 10852 10847 10840 10833 10825 10817 10808 10800 10792
10907 10908 10911 10912 10915 10914 10914 10915 10915 10911 10916 10917 10918 10920 10921 10917 10914 10916 10914 10914 10915 10916 10915 10910 10909 10906 10903 10899 10895 10895 10891 10888 10885 10881 10877 10872 10866 10860 10853 10845 10840 10835 10828 10819 10810 10802 10792 10782 10772
10902 10902 10905 10907 10910 10910 10911 10911 10910 10911 10911 10912 10915 10917 10916 10912 10910 10908 10908 10909 10913 10911 10908 10906 10905 10902 10899 10894 10890 10888 10883 10879 10877 10873 10869 10864 10860 10853 10847 10840 10833 10826 10816 10806 10797 10787 10776 10766 10755
10895 10897 10900 10903 10905 10906 10907 10909 10908 10908 10909 10909 10911 10916 10912 10908 10905 10903 10901 10907 10907 10905 10901 10899 10896 10893 10890 10886 10884 10880 10876 10871 10868 10864 10859 10854 10848 10839 10832 10824 10814 10806 10798 10789 10778 10767 10756 10743 10732
10890 10893 10895 10898 10900 10901 10902 10902 10902 10903 10902 10902 10904 10911 10906 10903 10898 10899 10902 10901 10898 10900 10898 10895 10893 10889 10885 10882 10878 10873 10869 10864 10859 10854 10848 10842 10832 10823 10814 10805 10797 10786 10776 10765 10753 10740 10725 10713 10702
10886 10888 10889 10890 10894 10895 10896 10896 10899 10899 10900 10899 10899 10899 10897 10894 10894 10895 10893 10897 10894 10894 10893 10892 10889 10885 10881 10875 10870 10865 10861 10855 10849 10844 10838 10828 10820 10811 10801 10790 10780 10768 10756 10744 10729 10715 10703 10694 10684
10883 10882 10883 10886 10889 10890 10893 10892 10894 10895 10896 10897 10894 10891 10887 10888 10892 10891 10891 10891 10891 10888 10887 10886 10882 10881 10877 10871 10867 10861 10855 10848 10841 10835 10828 10819 10810 10799 10786 10775 10763 10750 10736 10722 10711 10700 10688 10679 10670
10876 10875 10876 10878 10881 10884 10887 10888 10889 10890 10891 10892 10891 10885 10881 10885 10888 10886 10882 10882 10883 10881 10879 10877 10875 10876 10872 10868 10862 10858 10851 10843 10836 10830 10820 10809 10797 10783 10770 10759 10744 10728 10717 10707 10697 10685 10674 10661 10658
10869 10868 10869 10872 10876 10877 10879 10882 10884 10886 10885 10883 10882 10880 10876 10881 10884 10882 10879 10876 10873 10873 10871 10870 10869 10868 10864 10859 10853 10847 10839 10832 10828 10820 10809 10799 10787 10771 10758 10740 10726 10714 10702 10690 10682 10673 10661 10646 10640
10862 10861 10864 10868 10871 10872 10873 10875 10876 10879 10878 10878 10875 10872 10870 10875 10879 10877 10873 10870 10868 10866 10862 10860 10860 10859 10854 10847 10841 10833 10826 10819 10813 10803 10795 10783 10771 10756 10739 10724 10709 10697 10685 10675 10667 10658 10648 10632 10620
10854 10855 10858 10862 10864 10865 10865 10867 10870 10873 10873 10872 10869 10864 10864 10867 10870 10868 10865 10863 10862 10860 10857 10854 10852 10847 10842 10836 10828 10821 10813 10806 10799 10791 10782 10767 10753 10739 10721 10708 10695 10683 10673 10665 10653 10639 10626 10616 10604
10846 10852 10853 10856 10857 10859 10859 10860 10864 10867 10866 10866 10863 10859 10858 10858 10860 10859 10858 10858 10856 10854 10851 10847 10841 10835 10828 10822 10816 10809 10804 10799 10790 10781 10766 10751 10737 10722 10711 10695 10683 10673 10663 10651 10638 10625 10613 10601 10590
10838 10845 10846 10850 10852 10852 10852 10855 10857 10860 10861 10860 10856 10854 10853 10852 10852 10851 10851 10850 10847 10843 10840 10835 10830 10824 10819 10813 10808 10801 10792 10783 10774 10765 10753 10739 10725 10709 10696 10689 10679 10666 10655 10642 10627 10611 10598 10586 10576
10832 10838 10840 10842 10843 10845 10847 10851 10852 10852 10850 10852 10850 10849 10848 10845 10844 10844 10842 10840 10837 10834 10831 10827 10822 10816 10810 10805 10799 10791 10782 10773 10763 10752 10741 10725 10711 10703 10694 10683 10670 10657 10642 10626 10610 10595 10583 10572 10563
10828 10832 10835 10836 10839 10840 10842 10846 10845 10844 10842 10843 10842 10841 10839 10837 10836 10835 10833 10830 10826 10824 10822 10819 10816 10811 10806 10800 10790 10780 10771 10760 10750 10740 10727 10718 10707 10695 10682 10668 10654 10639 10624 10608 10594 10581 10570 10560 10552
10820 10824 10823 10829 10833 10834 10835 10839 10838 10835 10837 10836 10834 10834 10832 10831 10829 10827 10823 10819 10818 10815 10813 10810 10806 10801 10795 10788 10779 10769 10761 10750 10738 10729 10717 10706 10694 10680 10665 10651 10636 10622 10608 10592 10579 10569 10558 10549 10543
10810 10813 10816 10820 10824 10826 10828 10832 10832 10829 10828 10829 10827 10824 10823 10821 10820 10817 10814 10813 10810 10809 10806 10802 10798 10791 10784 10776 10767 10758 10746 10735 10727 10717 10707 10694 10680 10665 10650 10637 10624 10609 10594 10579 10566 10555 10545 10538 10533
10797 10802 10806 10809 10816 10819 10820 10824 10824 10825 10822 10821 10820 10817 10814 10811 10810 10809 10806 10804 10804 10803 10799 10793 10787 10779 10770 10762 10752 10743 10735 10725 10715 10705 10693 10680 10667 10653 10639 10624 10610 10595 10581 10566 10552 10540 10532 10526 10523
10785 10793 10797 10801 10805 10807 10812 10815 10815 10817 10817 10816 10812 10809 10806 10803 10802 10799 10795 10795 10795 10791 10787 10781 10772 10763 10755 10747 10739 10732 10723 10714 10703 10693 10680 10667 10655 10642 10626 10610 10595 10581 10566 10552 10539 10528 10520 10515 10513